{"data":{"norad_id":55664,"epoch":"2026-05-24T22:30:20.958048Z","epoch_age_seconds":90687,"freshness":"FRESH","line1":"1 55664U 23021AN  26144.93774257  .00000472  00000+0  47385-4 0  9998","line2":"2 55664  69.9995 332.2919 0002907 268.6667  91.4159 14.98330160180703","mean_motion":14.9833016,"eccentricity":0.0002907,"inclination_deg":69.9995,"raan_deg":332.2919,"arg_perigee_deg":268.6667,"mean_anomaly_deg":91.4159,"bstar":4.7385e-5,"rev_number":18070,"period_min":96.106988862855,"perigee_km":570.0349752281,"apogee_km":574.07581708722,"semimajor_km":6950.1923961577,"source":"CELESTRAK","updated_at":"2026-05-25T13:38:17.874651Z"}}